Notices

What's New in latest Release from April 7th, 2021:

- Updated Glossary, including Speed of Maximum Gust, and Total Hourly Precipitation

- Updated national and regional climate services offices contacts and prices information

- Addition of station inventory lists for 1981-2010, 1971-2000, and 1961-1990 Normals.

If you haven't already, please take our survey and provide feedback about our website: https://eccc.sondage-survey.ca/f/LanguageSelection.aspx?s=442ca660-fcf1-47c0-95a9-59707d6fd709

Hourly Data Report for July 04, 2019

TORONTO CITY
ONTARIO
Current Station Operator: ECCC - MSC

43°40'00.000" N
79°24'00.000" W
112.50 m
6158355
71508
XTO

Download Data

Hourly Data (July 2019)
Hourly Data Report for July 4, 2019
TIME
LST
Temp Definition
°C
Dew Point Definition
°C
Rel Hum Definition
%
Precip. Amount Definition
mm

Wind Dir Definition
10's deg

Wind Spd Definition
km/h
Visibility Definition
km
Stn Press Definition
kPa
Hmdx Definition


Wind Chill Definition


Weather Definition


00:00 21.1 14.2 65 0.0       100.18 25   LegendNANA
01:00 20.8 13.4 63 0.0       100.23     LegendNANA
02:00 20.4 13.5 65 0.0       100.20     LegendNANA
03:00 20.1 13.1 64 0.0       100.22     LegendNANA
04:00 20.3 13.0 63 0.0       100.23     LegendNANA
05:00 20.2 13.5 65 0.0       100.27     LegendNANA
06:00 22.2 12.3 53 0.0       100.31 25   LegendNANA
07:00 23.0 14.5 59 0.0       100.39 27   LegendNANA
08:00 24.6 15.5 57 0.0       100.39 29   LegendNANA
09:00 26.1 14.9 50 0.0       100.37 30   LegendNANA
10:00 27.2 14.8 47 0.0       100.40 31   LegendNANA
11:00 27.3 13.5 43 0.0       100.40 30   LegendNANA
12:00 26.3 14.4 48 0.0       100.41 30   LegendNANA
13:00 28.2 17.2 51 0.0       100.36 34   LegendNANA
14:00 27.7 15.3 47 0.0       100.32 32   LegendNANA
15:00 27.1 15.5 49 0.0       100.27 31   LegendNANA
16:00 28.3 15.4 46 0.0       100.27 33   LegendNANA
17:00 27.1 15.6 49 0.0       100.24 31   LegendNANA
18:00 26.4 15.7 52 0.0       100.21 31   LegendNANA
19:00 26.3 13.8 46 0.0       100.24 30   LegendNANA
20:00 25.7 15.2 52 0.0       100.28 30   LegendNANA
21:00 25.3 16.0 56 0.0       100.31 30   LegendNANA
22:00 24.8 16.7 61 0.0       100.33 30   LegendNANA
23:00 24.3 17.3 65 0.0       100.29 30   LegendNANA

Notes on Data Quality.

Legend

  • E = Estimated
  • M = Missing
  • NA = Not Available*
  • [empty] = Indicates an unobserved value
Date modified: